FW6547 Weather Reports


Display with metric or nautical units.
time (UTC)temp
F
wind
direction
speed
MPH
gust
MPH
rain 1hr
in
rain 24hr
in
rain mn
in
humidity
%
barometer
mb
20260504140423 62 166 1.0 2.0 0.00 0.00 0.00 46 1017.5
20260504130417 56 162 0.0 1.0 0.00 0.00 0.00 56 1017.6
20260504110345 49 179 0.0 0.0 0.00 0.00 0.00 65 1018.0
20260504100331 49 178 0.0 0.0 0.00 0.00 0.00 64 1018.0
20260504081308 51 179 1.0 1.0 0.00 0.00 0.00 57 1018.3
20260504080307 51 179 0.0 1.0 0.00 0.00 0.00 58 1018.5
20260504070246 52 181 0.0 1.0 0.00 0.00 0.00 54 1018.4
20260504060235 51 183 0.0 0.0 0.00 0.00 0.00 55 1018.9
20260504050223 50 183 0.0 0.0 0.00 0.00 0.00 54 1018.9
20260504045221 50 183 0.0 0.0 0.00 0.00 0.00 54 1018.8
20260504044216 49 183 0.0 0.0 0.00 0.00 0.00 53 1019.1
20260504043215 49 181 0.0 0.0 0.00 0.00 0.00 55 1019.2
20260504042215 49 181 0.0 0.0 0.00 0.00 0.00 60 1018.7
20260504041213 49 181 0.0 0.0 0.00 0.00 0.00 55 1018.7
20260504040213 49 181 0.0 0.0 0.00 0.00 0.00 52 1018.8
20260504035213 50 183 0.0 0.0 0.00 0.00 0.00 51 1018.9
20260504034213 51 181 0.0 0.0 0.00 0.00 0.00 49 1019.0
20260504033208 51 183 0.0 0.0 0.00 0.00 0.00 49 1019.0
20260504032208 51 183 0.0 0.0 0.00 0.00 0.00 49 1018.9
20260504031208 51 183 0.0 0.0 0.00 0.00 0.00 48 1018.8
20260504030207 51 183 0.0 0.0 0.00 0.00 0.00 46 1018.8
20260504025205 52 181 0.0 0.0 0.00 0.00 0.00 47 1018.7
20260504024205 51 183 0.0 0.0 0.00 0.00 0.00 47 1018.8
20260504023203 50 183 0.0 0.0 0.00 0.00 0.00 50 1018.8
20260504022202 49 183 0.0 0.0 0.00 0.00 0.00 53 1018.5
20260504021202 49 183 0.0 0.0 0.00 0.00 0.00 55 1018.5
20260504020201 49 183 0.0 0.0 0.00 0.00 0.00 58 1018.5
20260504015200 49 183 0.0 0.0 0.00 0.00 0.00 58 1018.3
20260504014159 50 181 0.0 0.0 0.00 0.00 0.00 56 1018.4
20260504013159 50 181 0.0 0.0 0.00 0.00 0.00 57 1018.2
20260504012154 51 183 0.0 0.0 0.00 0.00 0.00 51 1018.3
20260504011153 51 181 0.0 0.0 0.00 0.00 0.00 47 1018.1
20260504010151 51 183 0.0 0.0 0.00 0.00 0.00 47 1018.0
20260504005150 51 183 0.0 0.0 0.00 0.00 0.00 48 1018.3
20260504004145 52 183 0.0 0.0 0.00 0.00 0.00 50 1018.1
20260504003144 53 183 0.0 0.0 0.00 0.00 0.00 47 1017.9
20260504002144 54 183 0.0 0.0 0.00 0.00 0.00 48 1017.8
20260504001144 55 181 0.0 0.0 0.00 0.00 0.00 42 1018.0
20260504000139 57 183 0.0 0.0 0.00 0.00 0.00 39 1017.9
20260503235139 57 183 0.0 0.0 0.00 0.00 0.00 38 1017.7
20260503234135 59 183 0.0 0.0 0.00 0.00 0.00 37 1017.6
20260503233133 60 184 0.0 1.0 0.00 0.00 0.00 35 1017.6
20260503232133 60 178 1.0 1.0 0.00 0.00 0.00 34 1017.4
20260503231133 60 165 1.0 2.0 0.00 0.00 0.00 33 1017.4
20260503230133 60 199 2.0 2.0 0.00 0.00 0.00 33 1017.4
20260503225130 60 147 0.0 5.0 0.00 0.00 0.00 33 1017.3
20260503224126 61 151 0.0 2.0 0.00 0.00 0.00 33 1017.6
20260503223125 61 229 2.0 3.0 0.00 0.00 0.00 32 1017.5
20260503222120 61 179 0.0 1.0 0.00 0.00 0.00 32 1017.5
20260503221116 61 155 1.0 3.0 0.00 0.00 0.00 31 1017.6
20260503220115 61 86 3.0 5.0 0.00 0.00 0.00 33 1017.6
20260503215114 61 258 2.0 5.0 0.00 0.00 0.00 31 1017.6
20260503214114 61 164 3.0 5.0 0.00 0.00 0.00 31 1017.6
20260503213109 61 120 1.0 3.0 0.00 0.00 0.00 32 1017.8
20260503212104 61 215 2.0 3.0 0.00 0.00 0.00 32 1017.6
20260503211103 60 324 1.0 3.0 0.00 0.00 0.00 32 1017.7
20260503205100 61 328 3.0 5.0 0.00 0.00 0.00 30 1017.9
20260503204055 61 280 3.0 3.0 0.00 0.00 0.00 31 1017.9
20260503203055 62 307 5.0 8.0 0.00 0.00 0.00 30 1017.7
20260503202050 62 254 1.0 3.0 0.00 0.00 0.00 31 1017.9
20260503201045 61 191 1.0 5.0 0.00 0.00 0.00 32 1018.0
20260503200044 61 287 3.0 5.0 0.00 0.00 0.00 32 1018.3
20260503195044 61 296 3.0 3.0 0.00 0.00 0.00 33 1018.3
20260503194040 61 218 2.0 6.0 0.00 0.00 0.00 33 1018.5
20260503193038 61 187 3.0 7.0 0.00 0.00 0.00 33 1018.6
20260503192037 60 199 3.0 5.0 0.00 0.00 0.00 35 1018.5
20260503191036 59 259 2.0 6.0 0.00 0.00 0.00 36 1019.0
20260503190036 60 280 2.0 6.0 0.00 0.00 0.00 36 1019.0
20260503185032 60 253 2.0 5.0 0.00 0.00 0.00 35 1019.3
20260503184031 58 105 1.0 3.0 0.00 0.00 0.00 37 1019.3
20260503183031 58 287 3.0 6.0 0.00 0.00 0.00 36 1019.5
20260503182026 57 329 5.0 7.0 0.00 0.00 0.00 38 1019.5
20260503181025 59 331 3.0 6.0 0.00 0.00 0.00 38 1019.4
20260503180020 57 168 1.0 5.0 0.00 0.00 0.00 39 1019.5
20260503175020 58 179 1.0 2.0 0.00 0.00 0.00 42 1019.5
20260503174019 57 103 2.0 7.0 0.00 0.00 0.00 37 1019.7
20260503173017 55 107 1.0 7.0 0.00 0.00 0.00 41 1019.5
20260503172018 55 265 3.0 3.0 0.00 0.00 0.00 40 1019.8
20260503171012 54 183 1.0 2.0 0.00 0.00 0.00 43 1019.6
20260503150942 50 79 3.0 3.0 0.00 0.00 0.00 49 1020.4